Oxford, CT

7:45 PM EST on November 17, 2019 (GMT -0500)
Waterbury-Oxford

Weather History for KOXC - October, 2019

Change the Weather History Date:

Tuesday, October 22, 2019

  Actual Average Record
Temperature  
Mean Temperature 52 °F -  
Max Temperature 55 °F 54 °F 77 °F (2007)
Min Temperature 48 °F 38 °F 26 °F (2018)
Degree Days  
Heating Degree Days 14    
Growing Degree Days 2 (Base 50)    
Moisture  
Dew Point 49 °F    
Average Humidity 88    
Maximum Humidity 100    
Minimum Humidity 68    
Precipitation  
Precipitation 0.18 in - - ()
Sea Level Pressure  
Sea Level Pressure 30.05 in    
Wind  
Wind Speed 7 mph ()    
Max Wind Speed 14 mph    
Max Gust Speed 18 mph    
Visibility 8.3 miles    
Events Rain    
Averages and records for this station are not official NWS values.
T = Trace of Precipitation, MM = Missing Value Source: Averaged Metar Reports

Daily Weather History Graph

Daily Weather History Graph

Search for Another Location

Airport or City:

Astronomy

Oct. 22, 2019 Rise Set
Actual Time 7:12 AM EDT 6:01 PM EDT
Civil Twilight 6:43 AM EDT 6:29 PM EDT
Nautical Twilight 6:11 AM EDT 7:01 PM EDT
Astronomical Twilight 5:39 AM EDT 7:33 PM EDT
Moon 12:12 AM EDT (10/22) 3:14 PM EDT (10/22)
Length of Visible Light 11h 45m
Length of Day
10h 49m
Last Quarter, 37% of the Moon is Illuminated
Oct 22
Last Quarter
Oct 27
New
Nov 4
First Quarter
Nov 12
Full
Nov 19
Last Quarter

Hourly Weather History & Observations

Time (EDT) Temp. Dew Point Humidity Pressure Visibility Wind Dir Wind Speed Gust Speed Precip Events Conditions
12:51 AM 50.0 °F 42.1 °F 74% 30.18 in 10.0 mi East 6.9 mph - N/A   Clear
1:51 AM 50.0 °F 39.9 °F 68% 30.18 in 10.0 mi East 4.6 mph - N/A   Clear
2:51 AM 48.9 °F 43.0 °F 80% 30.16 in 10.0 mi ENE 9.2 mph - N/A   Clear
3:51 AM 48.0 °F 42.1 °F 80% 30.14 in 10.0 mi ENE 5.8 mph - N/A   Clear
4:51 AM 48.0 °F 41.0 °F 77% 30.13 in 10.0 mi ENE 9.2 mph - N/A   Clear
5:28 AM 48.2 °F 41.0 °F 76% 30.12 in 10.0 mi ENE 5.8 mph - N/A   Mostly Cloudy
5:51 AM 48.9 °F 41.0 °F 74% 30.15 in 10.0 mi ENE 5.8 mph - N/A   Mostly Cloudy
6:51 AM 48.9 °F 42.1 °F 77% 30.14 in 10.0 mi ENE 9.2 mph - N/A   Overcast
7:51 AM 48.9 °F 43.0 °F 80% 30.16 in 10.0 mi East 4.6 mph - N/A   Overcast
8:51 AM 50.0 °F 45.0 °F 83% 30.15 in 10.0 mi Variable 4.6 mph - N/A   Overcast
9:51 AM 52.0 °F 46.9 °F 83% 30.14 in 10.0 mi East 6.9 mph - N/A   Overcast
10:02 AM 51.8 °F 46.4 °F 82% 30.10 in 10.0 mi East 8.1 mph - N/A   Overcast
10:51 AM 52.0 °F 48.0 °F 86% 30.14 in 10.0 mi East 6.9 mph - N/A   Overcast
10:54 AM 53.6 °F 48.2 °F 82% 30.10 in 10.0 mi East 6.9 mph - N/A   Overcast
11:51 AM 53.1 °F 48.9 °F 86% 30.13 in 10.0 mi ENE 9.2 mph - N/A   Overcast
12:51 PM 54.0 °F 50.0 °F 86% 30.11 in 10.0 mi East 5.8 mph - N/A   Overcast
1:14 PM 53.6 °F 50.0 °F 88% 30.05 in 10.0 mi ESE 10.4 mph - N/A   Overcast
1:51 PM 54.0 °F 51.1 °F 90% 30.07 in 7.0 mi East 8.1 mph - N/A   Overcast
2:51 PM 55.0 °F 52.0 °F 89% 30.04 in 7.0 mi Variable 6.9 mph - N/A   Overcast
3:51 PM 54.0 °F 53.1 °F 97% 30.02 in 7.0 mi Variable 5.8 mph - N/A   Overcast
4:51 PM 55.0 °F 53.1 °F 93% 29.99 in 10.0 mi East 11.5 mph - N/A   Overcast
5:51 PM 55.0 °F 53.1 °F 93% 29.99 in 7.0 mi ESE 8.1 mph - N/A   Overcast
6:47 PM 55.4 °F 53.6 °F 94% 29.94 in 10.0 mi ESE 9.2 mph - N/A   Overcast
6:51 PM 55.0 °F 54.0 °F 96% 29.98 in 10.0 mi East 6.9 mph - N/A   Overcast
7:51 PM 55.0 °F 55.0 °F 100% 29.97 in 4.0 mi ESE 10.4 mph - 0.00 in Rain Light Rain
8:28 PM 55.4 °F 55.4 °F 100% 29.93 in 2.5 mi ESE 8.1 mph - 0.00 in Rain Light Rain
8:51 PM 55.0 °F 55.0 °F 100% 29.96 in 2.5 mi ESE 9.2 mph - 0.01 in Rain Light Rain
9:15 PM 55.4 °F 55.4 °F 100% 29.91 in 4.0 mi East 6.9 mph - 0.04 in Rain Rain
9:25 PM 55.4 °F 55.4 °F 100% 29.90 in 4.0 mi ESE 9.2 mph - 0.07 in Rain Rain
9:51 PM 55.0 °F 55.0 °F 100% 29.93 in 7.0 mi East 9.2 mph - 0.10 in Rain Light Rain
10:51 PM 55.0 °F 55.0 °F 100% 29.90 in 5.0 mi East 13.8 mph 18.4 mph 0.06 in Rain Light Rain
11:51 PM 55.9 °F 55.0 °F 97% 29.88 in 10.0 mi ESE 9.2 mph - 0.01 in Rain Light Rain